Dewpoint
15 16 18 16 18 15 20 18 19 21 21 26 28 34 32 25 22 19 29 25 25 26 31 52 53 53 54 54 53 53 52 50 56 58 59 60 60 60 60 60 60 61 61 61 61 61 62 62 62 60 60 61 62 64 65 66 66 67 68 68 68 68 68
15 17 18 18 16 16 15 14 13 16 23 23 21 14 22 24 15 18 24 32 41 42 37 50 52 52 53 52 52 52 53 53 52 57 59 60 60 60 61 61 61 61 61 61 61 61 62 62 62 61 61 61 62 64 65 65 66 66 67 68 68 68 68
17 17 18 13 14 17 14 12 20 24 19 18 26 21 16 15 15 17 20 31 41 42 45 49 51 52 51 51 51 52 52 53 54 52 58 60 61 61 61 61 61 61 61 61 61 61 61 62 63 62 61 61 61 63 64 65 65 66 67 68 68 68 68
18 19 17 15 15 18 19 24 19 22 23 27 21 20 25 19 18 18 15 30 35 38 37 48 51 53 51 50 50 51 51 52 54 55 54 59 60 61 61 61 61 61 61 60 60 60 61 62 63 63 62 61 61 61 64 65 65 66 67 67 68 68 67
17 14 19 17 18 16 18 17 16 17 20 24 19 22 21 21 20 19 19 27 32 35 35 41 52 53 51 50 50 50 50 51 52 54 56 57 60 60 61 61 61 61 60 60 61 61 61 62 63 63 63 62 61 61 62 64 65 65 66 67 67 68 67
17 17 22 22 20 20 18 17 16 16 15 19 18 17 24 23 22 17 20 26 32 33 31 33 52 53 51 50 50 49 49 50 51 53 55 57 59 60 61 61 61 61 61 60 60 61 61 61 62 63 63 63 62 62 62 63 64 65 65 66 67 67 67
18 19 21 25 23 22 20 18 16 17 15 17 23 20 23 26 26 30 26 27 29 38 33 37 52 54 51 51 50 49 49 49 50 51 52 56 59 60 60 60 61 61 61 61 60 60 61 61 62 63 63 63 63 63 63 63 63 64 65 66 66 67 67
23 24 25 26 23 21 20 20 17 16 14 14 15 20 27 26 27 26 27 30 28 35 32 43 53 55 53 51 50 49 49 49 49 50 51 53 55 58 60 61 62 63 61 61 61 61 61 61 62 62 63 63 64 64 64 63 63 64 64 65 66 67 67
18 18 24 23 25 23 21 19 18 17 16 15 18 27 29 31 27 22 26 22 29 29 31 47 54 55 56 53 50 49 49 49 49 49 50 50 52 54 55 58 60 62 62 63 61 61 61 61 61 62 63 63 64 64 64 64 64 64 64 65 65 66 67
12 12 18 20 21 23 22 21 18 18 16 16 16 16 23 23 31 27 27 26 33 28 34 52 53 54 55 55 51 50 49 49 48 49 49 50 50 51 52 53 55 57 59 60 62 64 62 61 61 62 63 63 64 64 65 65 65 65 65 65 65 66 67
19 23 25 29 30 25 21 21 19 18 18 20 21 25 26 19 23 20 25 30 24 23 43 50 52 52 53 55 53 50 49 48 48 48 49 49 49 50 51 52 53 54 55 57 58 60 62 63 61 62 63 63 63 64 65 65 65 65 65 65 65 65 66
27 28 28 26 28 24 22 20 19 19 19 20 23 19 18 25 21 20 33 34 24 27 46 49 51 51 51 53 52 51 49 48 48 48 48 51 48 49 50 51 51 52 53 55 56 57 60 61 63 64 63 63 63 65 64 65 66 66 66 66 65 65 66
26 25 26 26 30 24 24 21 20 20 20 21 21 23 25 26 19 16 25 28 30 42 44 48 48 49 49 50 51 51 49 48 48 48 47 47 47 48 49 50 51 52 52 53 54 55 57 58 60 61 63 65 65 64 64 65 65 66 67 66 66 65 65
26 26 26 26 24 24 25 25 25 23 21 21 20 19 18 18 23 25 22 27 36 43 43 45 48 48 48 48 51 51 49 48 48 47 47 47 47 47 48 50 50 51 52 53 54 55 56 56 57 59 61 63 66 66 64 64 65 66 67 67 66 66 66
25 27 30 26 25 26 25 25 24 23 22 21 20 19 18 26 23 26 27 29 35 44 44 44 45 49 47 47 48 50 50 49 48 47 47 47 47 47 48 49 50 50 51 52 53 54 55 56 56 58 60 62 63 66 66 64 65 66 67 67 67 67 66
22 26 27 25 27 26 24 23 24 24 25 27 26 23 29 27 25 32 33 34 40 43 43 44 43 45 46 46 47 48 50 50 49 48 48 48 47 47 47 49 50 50 51 52 52 53 54 55 56 57 58 59 61 61 63 67 64 65 67 67 67 67 67
23 25 27 28 25 16 11 19 26 37 36 38 39 42 43 43 42 37 30 32 42 43 45 42 43 43 45 45 46 46 48 51 52 50 49 48 48 48 48 48 50 50 51 51 52 53 54 55 56 56 57 58 59 61 63 65 68 66 67 67 67 67 67
23 26 29 29 20 14 17 24 37 41 39 39 38 39 42 42 42 41 42 42 43 43 43 42 42 43 45 43 44 46 45 48 51 52 52 50 49 49 49 49 49 51 52 53 53 54 55 55 56 56 58 57 58 59 61 63 65 70 69 68 68 68 68
23 27 28 23 17 16 27 30 41 41 42 43 41 41 42 42 42 42 42 42 42 43 43 43 43 44 46 44 44 44 44 45 48 51 52 53 52 51 50 49 48 49 51 54 54 56 57 57 56 56 56 56 56 58 60 60 62 65 69 70 70 70 69
27 25 22 12 15 26 30 28 33 41 41 40 41 39 41 42 42 42 41 42 42 42 42 43 43 43 43 45 45 44 44 44 44 49 51 53 54 53 51 52 49 49 48 50 53 55 59 57 57 58 57 57 56 57 59 60 61 63 65 69 69 69 70
21 23 22 21 27 26 27 27 39 39 36 37 36 31 35 41 41 42 41 42 42 42 42 42 42 42 43 44 44 43 43 43 44 44 49 51 54 54 53 53 53 51 50 49 51 54 55 55 55 57 58 59 57 56 58 59 61 61 62 65 68 69 70
28 23 22 18 20 18 26 39 41 41 41 41 41 38 36 40 40 42 42 41 41 41 42 42 42 42 42 44 45 44 42 43 43 44 46 48 50 53 54 55 53 52 51 51 50 52 53 53 55 56 56 58 58 57 58 59 59 60 61 62 64 67 69
26 25 22 18 17 20 30 36 39 41 40 42 42 38 33 39 39 41 42 41 41 41 42 42 42 40 37 39 43 43 42 42 43 43 44 45 47 49 53 55 55 52 52 53 52 51 51 52 54 56 56 57 57 57 58 58 59 59 60 61 62 63 65
31 27 24 22 24 19 32 38 40 39 40 42 35 27 30 39 39 41 41 41 41 41 42 43 41 40 37 38 41 42 42 42 43 43 44 44 46 46 48 52 55 55 55 53 51 51 50 51 54 56 56 56 55 56 57 58 58 59 60 61 61 62 63
32 32 29 29 29 35 37 38 39 39 42 38 30 26 34 39 40 40 42 41 41 41 41 41 39 41 41 42 42 43 42 42 42 43 44 44 45 45 45 48 54 55 54 53 52 51 51 52 52 54 56 56 55 56 57 57 58 59 59 60 61 62 63
29 30 29 27 30 33 37 39 40 42 36 27 28 36 39 40 40 41 42 42 41 41 40 40 41 41 42 47 43 41 41 41 42 42 43 44 44 44 47 49 51 52 52 53 52 52 52 52 52 52 53 55 56 56 56 57 58 58 60 60 61 62 62
33 32 29 28 24 35 39 39 38 40 33 32 38 40 40 43 42 41 41 41 40 40 39 40 41 41 41 41 41 41 41 41 41 42 42 43 43 43 45 45 48 49 50 51 52 52 52 52 52 51 51 53 55 56 56 57 58 59 60 61 62 62 63
22 26 26 26 31 34 39 37 32 37 41 41 40 39 37 39 40 40 40 40 40 40 40 40 40 40 40 41 41 40 40 41 41 41 41 42 43 43 44 46 47 49 49 51 51 52 53 53 52 52 51 53 54 56 56 57 58 59 60 61 62 63 64
28 24 28 34 36 38 40 40 40 40 41 42 41 39 39 39 39 40 39 39 39 40 40 40 40 40 40 40 41 40 40 41 41 41 41 42 42 43 45 46 48 48 47 48 50 52 53 53 53 52 52 52 54 55 56 58 58 59 60 62 64 65 65
34 35 35 36 37 38 40 41 42 41 40 40 40 39 39 39 39 40 39 39 40 40 41 40 40 40 40 41 41 41 41 41 41 43 42 42 42 43 44 45 45 47 46 47 48 50 52 53 53 53 52 52 53 55 56 57 57 58 60 63 64 65 66
27 25 34 36 36 38 40 37 37 40 41 40 40 40 39 39 40 40 40 40 41 41 41 41 40 40 40 40 41 41 41 41 41 41 41 42 42 43 43 44 46 45 46 47 48 49 50 53 53 53 51 52 53 55 57 57 56 58 60 62 64 64 65
28 28 30 35 38 37 37 37 35 36 38 39 40 41 40 41 41 41 41 41 41 41 40 40 40 40 40 40 40 41 41 41 41 41 41 42 42 42 43 44 46 46 46 47 47 49 50 52 53 53 52 51 53 55 56 56 56 58 60 61 62 63 63
33 33 33 34 35 35 36 37 38 38 38 38 39 40 40 40 40 41 41 42 41 40 40 40 40 40 40 40 40 41 41 41 41 41 42 42 42 42 42 43 46 46 46 49 48 49 51 52 53 52 51 51 53 55 56 56 56 57 59 60 62 62 63
29 29 31 33 28 28 31 34 38 38 37 38 39 40 40 40 40 40 40 40 40 40 40 40 40 40 40 40 41 41 41 41 41 41 42 42 41 42 42 44 45 45 48 48 49 50 51 53 53 52 51 51 54 55 56 56 56 57 58 60 61 61 63
28 31 33 35 34 33 33 33 35 36 37 39 40 40 40 40 41 41 40 40 40 40 40 40 40 40 41 41 41 41 41 41 42 41 41 41 41 41 42 43 44 46 46 49 50 51 53 54 53 52 50 51 53 55 55 55 56 57 58 60 61 62 63
33 33 33 36 35 34 34 36 37 38 40 40 40 41 41 41 41 41 41 41 40 40 40 40 41 41 41 41 41 41 41 41 41 41 40 40 41 42 44 44 46 47 48 50 51 53 53 53 52 51 51 52 54 55 55 55 56 57 59 61 61 62 63
33 34 35 36 36 36 36 36 37 39 41 43 41 40 41 41 42 42 41 41 41 41 41 41 41 41 41 41 41 41 41 41 42 42 44 46 45 45 46 47 48 49 49 50 50 51 52 52 52 51 51 53 55 54 54 55 57 58 60 61 62 63 64